Temperature
14 14 14 14 14 14 15 15 15 15 16 17 17 17 16 17 16 16 16 16 16 15 15 15 15 15 16 15 15 15 15 16 16 16 16 16 16 16
14 14 14 14 14 14 14 15 15 15 15 16 16 16 16 16 16 16 15 15 15 15 15 15 15 15 15 15 15 15 15 15 15 15 16 16 16 16
14 14 14 14 14 14 14 14 15 15 15 15 15 15 15 15 15 15 15 15 15 15 14 14 14 14 14 14 14 14 14 14 14 15 15 15 15 15
14 14 14 14 14 14 14 14 14 14 15 14 14 14 14 14 14 14 14 14 14 14 13 13 13 13 13 13 13 13 13 14 14 14 14 14 14 14
14 14 13 14 14 14 14 14 14 14 14 14 14 14 13 13 13 13 13 13 13 12 12 12 12 12 12 13 13 13 13 13 14 14 14 14 14 14
13 13 13 13 14 14 14 14 14 14 14 14 13 13 13 12 12 12 12 12 11 11 11 12 12 12 12 12 13 13 13 13 13 13 13 13 13 13
13 13 13 13 13 14 13 13 13 13 13 13 12 12 12 12 11 12 12 11 11 11 11 11 12 12 12 12 12 12 12 12 12 12 12 13 13 13
13 13 13 13 13 13 13 13 12 13 13 12 12 11 11 11 11 11 11 11 11 11 11 11 11 11 11 11 11 11 11 11 11 11 12 12 12 12
13 13 13 13 13 13 12 12 12 12 12 12 12 11 11 11 11 11 11 12 12 11 11 10 11 11 11 11 10 10 10 10 10 10 10 10 10 10
12 13 12 12 12 12 12 12 11 12 12 12 12 12 11 11 11 12 12 12 12 11 11 11 11 10 10 10 10 10 9 9 9 9 9 9 9 9
12 12 12 12 12 12 12 12 11 11 11 12 12 12 11 12 12 12 12 12 12 12 12 11 10 10 10 9 9 9 9 9 8 8 8 8 8 8
12 12 12 12 12 12 12 12 12 11 11 11 11 11 12 12 12 12 12 12 12 12 12 11 10 10 9 9 9 9 9 8 8 8 8 8 8 8
11 12 12 12 12 12 12 12 12 12 11 11 11 12 12 12 12 12 12 13 12 12 12 12 11 11 11 10 9 9 9 9 8 8 8 7 7 7
11 11 12 12 12 11 11 12 12 11 11 11 11 11 11 11 12 12 12 13 12 12 12 12 12 11 11 10 10 9 9 9 8 8 7 7 7 7
10 11 11 12 11 11 11 11 11 11 11 11 11 11 11 11 11 11 11 12 12 11 12 12 11 12 11 11 10 10 9 9 9 8 8 8 7 7
9 10 11 12 11 11 11 11 11 12 12 12 11 10 10 10 10 10 11 11 11 11 11 11 11 11 11 11 10 10 10 9 9 8 8 8 8 8
9 9 10 11 11 11 11 11 11 12 12 11 11 10 10 10 10 10 10 10 10 10 10 10 10 10 10 10 10 10 9 9 8 8 8 8 8 8
8 9 10 10 10 10 11 11 11 11 11 11 10 10 10 10 10 10 10 10 10 10 10 10 10 10 10 10 10 9 9 9 8 8 8 7 7 7
9 10 10 10 10 10 11 11 11 11 11 10 10 10 11 11 10 11 11 11 11 10 10 10 10 10 9 9 9 9 9 9 8 8 8 7 7 7
9 10 11 11 11 11 11 11 11 11 11 11 11 11 11 11 11 11 11 11 11 11 10 10 10 10 10 10 10 9 9 9 9 8 8 8 7 7
10 11 11 12 12 12 12 11 11 11 11 11 11 11 11 11 11 11 11 11 11 11 11 10 10 10 10 10 10 10 10 9 9 9 8 8 8 7
10 11 12 12 12 12 12 11 11 11 11 11 11 11 11 11 11 11 11 11 11 11 11 10 10 10 10 10 10 10 10 9 9 9 9 8 8 8
10 11 12 12 12 12 12 11 11 11 11 11 11 11 11 12 11 11 11 11 11 11 10 10 10 10 10 10 10 10 10 10 9 9 9 9 8 8
Wind_Speed
7 8 7 7 7 8 8 8 7 6 6 5 2 4 7 7 11 12 11 14 16 16 16 16 16 16 16 16 16 17 17 17 17 18 18 18 14 5
6 7 7 6 6 7 7 7 7 7 6 3 2 4 8 9 11 13 14 16 16 17 17 17 17 17 17 17 18 17 17 17 17 18 19 20 19 18
6 7 7 7 5 6 6 6 7 7 8 3 2 6 9 11 11 11 13 12 13 18 18 18 18 18 18 18 18 17 17 17 17 18 19 20 20 18
6 6 7 6 6 5 5 6 7 8 7 6 4 6 10 12 12 11 10 12 12 18 19 19 19 19 19 19 19 18 18 17 17 17 18 18 18 17
5 6 6 6 5 4 5 6 6 7 6 7 7 7 8 10 12 12 13 10 12 16 18 18 19 19 19 19 19 19 19 19 19 18 18 18 18 17
5 5 5 4 4 4 4 5 5 3 5 9 9 9 8 9 11 12 11 9 9 11 12 15 18 19 19 19 19 19 19 20 20 20 20 19 19 19
5 4 1 4 4 3 2 3 2 2 6 9 10 9 9 9 9 7 10 9 9 10 10 9 9 9 13 16 17 17 18 19 19 19 18 18 18 18
4 2 5 5 6 6 6 6 5 7 9 10 10 10 8 7 5 7 9 10 8 7 8 7 7 8 6 10 13 17 18 18 17 17 16 15 14 14
5 4 4 7 7 7 7 8 9 11 12 11 13 11 8 6 5 6 8 9 7 9 9 9 8 8 6 11 14 16 16 16 15 14 13 11 9 8
6 5 7 9 8 8 7 8 7 7 10 10 11 10 8 6 6 7 9 8 8 9 10 9 8 8 8 8 12 14 15 14 14 13 11 10 7 4
8 8 9 9 10 10 9 10 10 9 11 14 13 12 12 9 7 7 8 7 8 7 7 6 8 8 5 5 9 11 11 12 11 10 9 11 13 9
7 8 11 12 11 11 10 10 11 10 10 11 10 10 9 10 10 6 3 5 7 5 4 5 9 7 5 4 5 8 8 8 8 6 4 5 8 8
6 7 8 15 12 11 10 9 12 11 9 8 7 6 6 7 8 7 5 3 6 5 3 3 6 5 5 5 5 6 6 5 6 6 7 5 1 4
4 6 10 16 13 11 9 14 16 12 7 6 6 5 6 8 7 7 8 7 8 8 6 5 3 2 4 6 5 4 4 5 4 2 1 5 6 5
5 6 14 17 14 10 14 17 13 6 6 6 6 6 8 8 7 5 6 7 7 9 11 9 5 4 4 5 5 4 4 4 4 4 3 2 2 4
1 9 16 15 11 12 11 9 6 4 5 6 8 9 7 6 6 5 5 6 7 6 8 10 8 6 5 5 5 4 3 3 4 4 2 4 1 4
4 6 8 9 9 9 8 6 4 4 6 8 9 8 7 6 6 6 6 6 6 6 4 3 5 6 6 4 4 3 3 3 4 3 1 3 2 3
8 8 9 10 10 10 9 6 5 5 6 8 8 7 6 6 6 5 6 7 8 7 5 5 4 3 2 4 3 2 3 4 2 2 2 3 3 2
8 7 8 8 9 9 8 7 6 6 7 7 7 6 6 6 6 4 4 5 7 7 6 6 5 5 6 5 2 2 3 3 1 2 2 2 2 1
6 6 7 7 8 8 8 7 7 8 7 7 6 6 6 6 6 5 5 6 6 6 5 4 3 3 3 3 4 4 5 3 3 2 2 3 2 1
5 3 5 7 8 8 8 8 9 7 6 6 7 7 6 6 6 5 6 7 6 5 6 5 3 2 1 1 2 4 5 9 7 5 3 3 3 2
4 3 3 4 7 8 8 9 9 7 7 7 7 6 6 6 6 7 7 5 3 4 9 6 4 3 2 3 2 2 5 6 10 13 10 7 4 4
4 3 2 4 6 8 9 9 10 7 6 7 7 6 6 6 6 7 7 6 5 7 9 7 5 5 5 4 3 2 2 3 3 4 5 15 21 21
Wind_Direction
289 290 287 281 275 271 272 267 262 266 261 234 208 132 116 112 135 116 113 112 111 109 106 102 98 94 90 85 82 80 80 80 79 76 71 62 51 33
288 287 290 287 284 279 273 270 257 245 251 223 192 145 129 122 114 108 110 111 109 109 106 103 100 96 90 86 82 79 78 78 79 79 77 73 65 59
303 309 310 305 304 297 285 269 255 238 236 226 167 145 130 122 114 114 114 108 108 107 106 103 100 96 91 88 85 82 80 79 79 78 78 76 72 67
301 311 310 316 323 312 305 285 263 239 218 193 161 144 135 127 123 116 112 108 108 109 107 105 101 96 93 90 86 83 81 80 79 77 77 77 76 73
293 303 305 313 322 329 319 305 282 252 205 167 147 135 130 127 122 114 112 112 111 113 107 104 101 98 95 93 90 86 83 81 80 79 78 78 78 76
277 282 292 323 341 338 330 317 302 260 163 147 138 132 126 122 123 124 122 124 128 123 108 107 103 97 97 97 95 92 89 87 86 86 85 83 82 80
260 269 36 70 50 29 7 345 351 109 126 131 130 127 126 130 132 134 135 134 125 128 128 128 117 104 99 96 94 94 91 89 88 86 86 86 85 84
240 213 142 126 103 87 71 59 70 106 124 126 127 131 127 125 124 138 140 140 140 155 145 139 125 109 100 99 104 102 98 94 90 86 84 83 83 83
217 206 186 140 141 124 105 86 78 87 106 121 129 129 132 141 150 162 167 157 143 157 142 125 114 106 106 121 127 119 113 105 98 91 86 85 89 97
197 183 148 154 159 151 136 109 100 100 112 116 120 124 132 154 177 174 159 141 131 137 136 129 130 125 126 138 153 142 132 121 109 96 81 68 62 107
192 174 159 158 158 158 132 115 106 97 96 105 113 119 120 121 138 143 140 135 133 136 136 128 135 133 138 149 170 166 149 137 126 110 84 53 33 50
185 166 161 151 151 151 142 132 124 123 122 118 117 120 111 92 82 91 120 151 143 137 138 128 146 143 148 160 163 171 169 167 163 154 130 75 50 50
190 168 152 147 146 143 145 137 139 138 134 128 120 114 103 88 74 59 48 113 136 123 124 117 152 157 146 153 163 173 167 167 182 197 215 220 129 76
253 179 156 155 150 147 142 145 152 150 145 140 136 131 112 94 82 71 60 64 89 91 64 64 102 127 139 141 138 141 138 137 125 115 159 199 199 152
282 197 157 152 142 137 145 154 165 175 155 148 138 119 109 110 104 94 84 78 73 74 62 50 58 57 85 119 124 132 137 138 116 83 13 324 174 163
317 150 144 146 139 135 148 161 191 183 148 133 119 115 120 134 140 140 127 111 94 79 64 57 50 55 71 72 101 118 121 128 121 101 348 299 276 122
142 156 149 144 141 148 161 178 181 145 128 121 124 137 154 161 157 153 141 131 122 122 115 91 78 84 81 62 85 81 87 93 111 121 288 318 353 95
163 175 161 152 153 158 166 169 158 144 131 129 140 158 163 151 142 150 157 151 147 149 151 152 137 121 111 50 44 73 85 82 50 17 22 11 349 79
182 181 164 158 158 162 164 162 158 146 138 145 156 159 146 137 143 163 162 141 137 138 146 159 170 176 192 181 212 280 142 131 100 30 10 334 307 327
193 178 165 164 160 161 163 162 151 144 150 157 155 150 146 148 156 161 145 136 130 131 138 140 110 82 60 115 152 204 220 181 155 182 260 284 269 248
191 184 170 164 157 156 153 145 142 151 161 150 147 151 154 152 160 159 127 122 144 155 137 117 125 131 78 344 201 164 193 217 210 195 209 249 269 277
193 203 188 160 153 144 136 137 145 155 154 146 145 153 157 159 159 142 134 148 184 137 121 127 154 176 231 253 265 161 170 200 234 234 232 227 222 242
209 222 225 164 143 136 140 148 152 154 160 151 150 165 162 149 139 135 145 173 171 138 138 153 177 211 225 208 224 247 194 207 215 190 233 237 238 245
Height
1461 1459 1458 1456 1455 1455 1455 1456 1456 1455 1454 1455 1456 1457 1457 1459 1462 1464 1468 1471 1473 1476 1478 1479 1481 1482 1483 1483 1484 1484 1485 1486 1487 1489 1490 1492 1495 1498
1457 1455 1454 1452 1450 1449 1449 1449 1450 1450 1449 1450 1451 1453 1454 1456 1459 1462 1465 1468 1471 1474 1476 1478 1479 1481 1482 1482 1483 1483 1484 1484 1485 1486 1487 1488 1491 1493
1454 1452 1450 1448 1446 1445 1443 1442 1442 1443 1443 1445 1447 1449 1451 1453 1456 1460 1463 1466 1469 1472 1475 1477 1478 1480 1481 1482 1483 1483 1483 1484 1484 1485 1485 1486 1488 1490
1450 1449 1447 1445 1443 1441 1439 1437 1436 1436 1437 1439 1442 1445 1448 1451 1455 1458 1462 1465 1468 1471 1474 1476 1478 1480 1481 1482 1483 1484 1484 1485 1485 1485 1485 1486 1488 1490
1446 1445 1444 1442 1440 1438 1435 1432 1430 1430 1431 1434 1437 1442 1446 1450 1454 1458 1462 1465 1468 1471 1475 1477 1479 1481 1482 1483 1484 1485 1485 1485 1486 1486 1487 1487 1489 1490
1443 1442 1441 1439 1437 1435 1432 1429 1426 1425 1427 1430 1434 1439 1444 1449 1453 1457 1462 1466 1469 1473 1476 1478 1480 1482 1483 1485 1486 1486 1487 1487 1488 1488 1488 1489 1489 1490
1439 1439 1438 1437 1435 1433 1430 1427 1425 1423 1425 1428 1432 1437 1443 1448 1453 1457 1461 1466 1471 1474 1477 1480 1482 1484 1485 1486 1487 1488 1489 1489 1489 1489 1489 1490 1490 1490
1435 1435 1435 1434 1433 1431 1429 1427 1425 1424 1425 1427 1432 1437 1443 1448 1453 1458 1462 1466 1472 1477 1479 1482 1484 1485 1487 1488 1489 1490 1491 1491 1491 1491 1491 1491 1490 1491
1431 1432 1433 1432 1432 1431 1430 1429 1428 1428 1428 1430 1434 1439 1444 1449 1454 1459 1464 1468 1471 1476 1480 1482 1485 1486 1488 1490 1491 1492 1492 1492 1492 1491 1491 1491 1490 1491
1426 1428 1429 1431 1432 1432 1432 1432 1432 1432 1433 1435 1438 1443 1447 1452 1457 1461 1466 1470 1474 1478 1480 1482 1485 1487 1490 1491 1492 1493 1493 1493 1493 1492 1491 1491 1490 1490
1422 1424 1426 1429 1431 1432 1433 1433 1435 1436 1438 1441 1444 1447 1452 1456 1459 1463 1467 1471 1474 1478 1481 1482 1485 1488 1490 1491 1492 1493 1493 1493 1493 1492 1492 1491 1491 1490
1417 1420 1423 1426 1429 1431 1433 1435 1436 1439 1441 1444 1448 1451 1455 1458 1461 1464 1467 1471 1473 1477 1481 1482 1484 1487 1490 1491 1492 1492 1493 1493 1493 1492 1491 1491 1490 1489
1412 1416 1420 1424 1427 1430 1433 1435 1438 1441 1443 1446 1449 1453 1456 1458 1461 1464 1467 1470 1473 1476 1479 1482 1484 1485 1487 1489 1491 1491 1492 1492 1492 1492 1491 1490 1489 1489
1406 1411 1416 1421 1425 1429 1432 1435 1439 1442 1445 1447 1450 1453 1455 1457 1460 1463 1467 1469 1472 1475 1478 1480 1482 1484 1486 1487 1490 1491 1492 1492 1492 1491 1491 1490 1489 1488
1399 1405 1412 1418 1423 1427 1431 1435 1439 1443 1446 1448 1451 1453 1454 1457 1460 1463 1466 1469 1471 1474 1477 1480 1482 1484 1485 1487 1489 1491 1492 1492 1491 1491 1490 1490 1489 1488
1396 1401 1408 1415 1420 1425 1430 1435 1439 1443 1446 1448 1450 1452 1455 1457 1459 1462 1465 1468 1471 1473 1476 1479 1481 1483 1485 1487 1489 1491 1492 1492 1491 1491 1490 1490 1489 1488
1394 1399 1405 1412 1418 1423 1429 1434 1438 1441 1444 1446 1448 1452 1455 1458 1460 1462 1465 1467 1470 1472 1475 1478 1481 1483 1486 1488 1489 1491 1491 1491 1490 1490 1489 1489 1488 1486
1395 1400 1405 1410 1416 1422 1427 1432 1436 1440 1443 1445 1449 1452 1455 1458 1461 1463 1466 1468 1470 1473 1475 1478 1481 1483 1486 1488 1489 1489 1489 1489 1488 1488 1487 1486 1486 1484
1395 1401 1406 1411 1416 1422 1427 1431 1435 1438 1442 1445 1449 1452 1455 1458 1460 1463 1466 1469 1471 1473 1476 1478 1480 1482 1483 1485 1486 1488 1487 1487 1486 1486 1485 1484 1484 1482
1395 1401 1407 1411 1416 1421 1426 1430 1434 1437 1441 1444 1448 1452 1455 1457 1460 1463 1466 1469 1471 1473 1475 1478 1479 1481 1481 1483 1484 1485 1486 1485 1484 1484 1483 1482 1481 1480
1394 1401 1407 1412 1416 1420 1425 1429 1432 1436 1440 1444 1447 1451 1454 1457 1460 1463 1465 1468 1471 1473 1474 1476 1477 1479 1481 1482 1483 1483 1483 1483 1483 1482 1480 1479 1478 1476
1395 1401 1406 1411 1416 1420 1424 1428 1432 1436 1440 1443 1447 1450 1453 1456 1459 1462 1464 1467 1470 1472 1473 1475 1476 1478 1479 1481 1481 1481 1481 1481 1480 1479 1478 1477 1475 1473
1396 1401 1406 1411 1415 1420 1424 1428 1432 1435 1439 1443 1446 1449 1453 1455 1458 1461 1463 1466 1469 1470 1472 1474 1476 1477 1478 1479 1480 1480 1479 1479 1478 1476 1475 1474 1472 1470